Location: Newark
(34.9500°N, 139.9667°E)
Time: 15:35:57
(UTC+00:00)

Vanguard 2 Rocket - Pass Details

Date: 13 December 2019
Orbit: 554 x 3326 km, 32.9° (Epoch: 18 January)

Event Time Altitude Azimuth Distance (km) Brightness Sun altitude
Rises 11:08:40 0° 275° (W) 5,886 11.8 -44.1°
Reaches altitude 10° 11:13:16 10° 274° (W) 4,424 11.0 -45.0°
Enters shadow 11:20:43 42° 263° (W) 2,006 8.7 -46.5°
Maximum altitude 11:24:07 71° 193° (SSW) 1,301 - -47.2°
Drops below altitude 10° 11:30:08 10° 109° (ESE) 2,539 - -48.5°
Sets 11:32:08 0° 107° (ESE) 3,271 - -48.9°
